TimeBST,TemperatureF,Dew PointF,Humidity,Sea Level PressureIn,VisibilityMPH,Wind Direction,Wind SpeedMPH,Gust SpeedMPH,PrecipitationIn,Events,Conditions,WindDirDegrees,DateUTC
7:50 AM,41.0,39.2,93,29.44,6.2,WNW,4.6,-,N/A,,Scattered Clouds,300,2012-10-05 06:50:00
8:20 AM,42.8,41.0,93,29.44,6.2,West,6.9,-,N/A,,Scattered Clouds,260,2012-10-05 07:20:00
8:50 AM,42.8,41.0,93,29.47,6.2,WSW,10.4,-,N/A,,Scattered Clouds,250,2012-10-05 07:50:00
9:20 AM,42.8,39.2,87,29.47,6.2,West,11.5,-,N/A,,Partly Cloudy,270,2012-10-05 08:20:00
9:50 AM,44.6,41.0,87,29.47,6.2,West,10.4,-,N/A,,Partly Cloudy,260,2012-10-05 08:50:00
10:20 AM,46.4,41.0,81,29.47,6.2,West,11.5,-,N/A,,Partly Cloudy,260,2012-10-05 09:20:00
10:50 AM,46.4,39.2,76,29.50,6.2,West,12.7,-,N/A,,Partly Cloudy,280,2012-10-05 09:50:00
11:50 AM,48.2,41.0,76,29.50,6.2,WNW,11.5,-,N/A,,Partly Cloudy,290,2012-10-05 10:50:00
12:20 PM,50.0,41.0,71,29.50,6.2,WNW,9.2,-,N/A,,Partly Cloudy,300,2012-10-05 11:20:00
12:50 PM,50.0,39.2,66,29.53,6.2,WNW,11.5,-,N/A,,Partly Cloudy,300,2012-10-05 11:50:00
1:20 PM,51.8,41.0,67,29.53,6.2,WNW,10.4,-,N/A,,Partly Cloudy,300,2012-10-05 12:20:00
1:50 PM,53.6,42.8,67,29.56,6.2,West,10.4,-,N/A,,Partly Cloudy,270,2012-10-05 12:50:00
2:20 PM,53.6,39.2,58,29.56,6.2,West,9.2,-,N/A,,Partly Cloudy,280,2012-10-05 13:20:00
2:50 PM,53.6,39.2,58,29.56,6.2,West,9.2,-,N/A,,Partly Cloudy,270,2012-10-05 13:50:00
3:20 PM,53.6,37.4,54,29.56,6.2,West,11.5,-,N/A,,Scattered Clouds,270,2012-10-05 14:20:00
3:50 PM,53.6,37.4,54,29.56,6.2,West,9.2,-,N/A,,Scattered Clouds,280,2012-10-05 14:50:00
4:20 PM,53.6,37.4,54,29.59,6.2,West,9.2,-,N/A,,Partly Cloudy,280,2012-10-05 15:20:00
4:50 PM,51.8,37.4,58,29.59,6.2,West,9.2,-,N/A,,Partly Cloudy,280,2012-10-05 15:50:00
5:20 PM,50.0,37.4,62,29.59,6.2,WNW,10.4,-,N/A,,Partly Cloudy,290,2012-10-05 16:20:00
5:50 PM,48.2,39.2,71,29.62,6.2,West,6.9,-,N/A,,Partly Cloudy,270,2012-10-05 16:50:00
6:20 PM,44.6,37.4,76,29.62,6.2,WNW,4.6,-,N/A,,Scattered Clouds,290,2012-10-05 17:20:00
6:50 PM,46.4,37.4,71,29.62,6.2,WNW,3.5,-,N/A,,Scattered Clouds,290,2012-10-05 17:50:00
7:20 PM,44.6,37.4,76,29.62,6.2,NW,4.6,-,N/A,,Scattered Clouds,310,2012-10-05 18:20:00
7:50 PM,42.8,37.4,81,29.62,6.2,WNW,5.8,-,N/A,,Scattered Clouds,300,2012-10-05 18:50:00
8:20 PM,44.6,37.4,76,29.65,6.2,WNW,3.5,-,N/A,,Scattered Clouds,300,2012-10-05 19:20:00
8:50 PM,42.8,35.6,76,29.65,6.2,West,4.6,-,N/A,,Scattered Clouds,280,2012-10-05 19:50:00
9:20 PM,42.8,37.4,81,29.65,6.2,NW,1.2,-,N/A,,Scattered Clouds,320,2012-10-05 20:20:00
9:50 PM,41.0,37.4,87,29.65,6.2,NNW,2.3,-,N/A,,Scattered Clouds,330,2012-10-05 20:50:00